Regional Weather Roundup
Issued by NWS Charleston, SC

Current Version | Previous Version | Graphics & Text | Print | Product List | Glossary On
Versions: 1 2 3 4 5 6 7 8 9 10 11 12 13 14 15 16 17 18 19 20 21 22 23 24 25 26 27 28 29 30 31 32 33 34 35 36 37 38 39 40 41 42 43 44 45 46 47 48 49 50
000
ASUS42 KCHS 011327
RWRCHS

REGIONAL WEATHER ROUNDUP
NATIONAL WEATHER SERVICE CHARLESTON SC
900 AM EDT SAT AUG 01 2015

NOTE: "FAIR" INDICATES FEW OR NO CLOUDS BELOW 12,000 FEET WITH NO
SIGNIFICANT WEATHER AND/OR OBSTRUCTIONS TO VISIBILITY.

NOT ALL STATIONS ARE QUALITY CONTROLLED BY THE NATIONAL
WEATHER SERVICE. USE DATA WITH CAUTION...ESPECIALLY
DEWPOINT OBSERVATIONS.

SCZ027-030-031-034>040-042>050-011400-
...SOUTHEAST SOUTH CAROLINA...

CITY           SKY/WX    TMP DP  RH WIND       PRES   REMARKS
N CHARLESTON   MOSUNNY   82  75  79 NW6       29.93R
WATERFRONT PRK   N/A     81  77  88 CALM      29.89R
MOUNT PLEASANT LGT RAIN  81  75  83 CALM      29.94R
JOHNS ISLAND   CLOUDY    81  77  89 NW3       29.94R
PINOPOLIS      NOT AVBL
MONCKS CORNER  FAIR      79  75  89 CALM      29.94R
SUMMERVILLE    FAIR      79  77  94 CALM      29.94S
BEAUFORT MCAS  PTSUNNY   79  75  87 CALM      29.94R
BEAUFORT ARPT  CLOUDY    81  77  89 NW6       29.93S
HILTON HEAD IS MOSUNNY   79  73  83 SW7       29.94R
WALTERBORO     PTSUNNY   81  73  78 CALM      29.95S
ALLENDALE      FAIR      81  73  78 CALM      29.94R

...SOUTHERN MIDLANDS AND PEE DEE...

CITY           SKY/WX    TMP DP  RH WIND       PRES   REMARKS
GEORGETOWN     NOT AVBL
KINGSTREE      NOT AVBL
ORANGEBURG     CLOUDY    78  73  84 CALM      29.94R
BARNWELL       PTSUNNY   81  75  83 CALM      29.96R
AIKEN          CLOUDY    77  61  57 NE9       29.99R
MANNING        HVY RAIN  81  72  74 N5        29.94S
COLUMBIA       MOSUNNY   82  60  47 NE10      29.95R
SUMTER         SUNNY     82  66  58 NE7       29.93R
FLORENCE       SUNNY     82  71  69 N8        29.94R
MYRTLE BEACH   PTSUNNY   79  72  78 N7        29.94R
N MYRTLE BEACH MOSUNNY   77  73  87 NE5       29.93R

$$

GAZ063-065-086>088-099>101-113>116-118-119-134>141-150-011400-
...SOUTHEAST GEORGIA...

CITY           SKY/WX    TMP DP  RH WIND       PRES   REMARKS
SAVANNAH ARPT  PTSUNNY   76  73  91 SW3       29.95R
HUNTER AAF     MOSUNNY   80  77  90 W5        29.92R
FORT STEWART   NOT AVBL
STATESBORO     PTSUNNY   76  32  20 CALM      29.95S
SYLVANIA       CLOUDY    76  76 100 CALM      29.95S FOG
CLAXTON        NOT AVBL

...CSRA...CENTRAL AND FAR SOUTHEAST GEORGIA...

CITY           SKY/WX    TMP DP  RH WIND       PRES   REMARKS
THOMSON        PTSUNNY   81  69  67 NE7       30.01R
AUGUSTA-BUSH   MOSUNNY   77  74  90 CALM      29.95R
AUGUSTA-DANIEL MOSUNNY   80  70  71 NE5       29.97R
SWAINSBORO     PTSUNNY  N/A N/A N/A CALM      29.95F
VIDALIA        CLOUDY    75  73  94 CALM      29.95S FOG
EASTMAN        CLOUDY    76  76 100 CALM      29.97S FOG
HAZLEHURST     CLOUDY    78  78 100 CALM      29.93S
ALMA           CLOUDY    77  75  93 CALM      29.93S
WAYCROSS       CLOUDY    79  79 100 CALM      29.92F FOG
JESUP          CLOUDY    79  77  94 CALM      29.94S
BAXLEY         CLOUDY    77  75  94 CALM      29.93F FOG
BRUNSWICK      CLOUDY    77  73  88 SW3       29.95S
SAINT SIMONS   PTSUNNY   79  75  87 W6        29.94R

$$

SCZ027-028-034-036>038-045-046-048>050-GAZ119-141-011400-
...LAKE AND SUPPLEMENTAL COASTAL OBSERVATIONS...

STATION/POSITION TIME  TEMP    WIND        PRES    WAVE   SWELL
                       AIR SEA DIR/SP/G            HT/PER HT/PER/DIR
                 (UTC) (F)     (DEG/KT/KT) (MB)    (FT/S) (FT/S/D)
UPR LAKE MARION  NOT AVBL
WINYAH BAY       1200   76     360/  2     1012.0S
LAKE MURRAY      1200   78      20/  3/  7 1013.2R
ACE BASIN NERRS  NOT AVBL
FORT PULASKI     1300   80 85  260/  5/  6 1014.3R
SAPELO ISLAND    1300   78     230/  5     1014.0S

$$

ANZ835-935-AMZ111-154-330-350-352-354-370-450-454-472-011400-
...C-MAN AND BUOY OBSERVATIONS...

STATION/POSITION TIME  TEMP    WIND        PRES    WAVE   SWELL
                       AIR SEA DIR/SP/G            HT/PER HT/PER/DIR
                 (UTC) (F)     (DEG/KT/KT) (MB)    (FT/S) (FT/S/D)
BUOY 41004       1250   78 84  360/ 16/ 21 1012.4R   4/ 7   2/ 7
BUOY 41008       1250   80 82  240/ 10/ 12 1013.6R   3/ 6   2/160/ 6
FOLLY BEACH CMAN 1300   81     300/  3/  5 1013.8R
CAPERS NEARSHORE 1208   80     230/ 10/ 14 1012.9R
FRIPP NEARSHORE  1200   80     300/  6/  8 1012.7R


STATION/POSITION TIME  TEMP    WIND        PRES    WAVE   SWELL
                       AIR SEA DIR/SP/G            HT/PER HT/PER/DIR
                 (UTC) (F)     (DEG/KT/KT) (MB)    (FT/S) (FT/S/D)
5E ST. MARYS GA  1221      82                N/A     3/ 5
FRYING PAN BUOY  1250   80 83  170/ 12/ 14 1013.9R   4/ 7   3/160/ 7
BUOY 41025       1250   75 85  180/  4/  6 1014.2R   4/ 8   3/150/ 8
CAPE LOOKOUT NC  1300   77     180/  5/  5 1012.8F
BUOY 41002       1250   82 81  230/ 16/ 17 1015.9R   6/ 7
BUOY 41010       1220   81 84  250/ 23/ 27 1015.2S
ST AUGUSTINE FL  1300   77 81  190/ 10/ 12 1015.0R


$$


USA.gov is the U.S. government's official web portal to all federal, state and local government web resources and services.